Arar current weather conditions

sailwx.info

Wind from 360 at 7 knots

Air temperature 15.0° C
Dewpoint 11.0° C

Last reported at 2014-Oct-25 02:00 UTC.
Time now 2014-Oct-25 03:38 UTC

Location: N 30°54' E 041°08'.
View on Google Maps.

See reports from other nearby stations

  
Tides and Currents Weather Stations Pressure Air Temp Water Temp Dewpoint Dewpoint Depression Visibility Wind Speed Wind Dir Waves Ship Positions
date/time (UTC)wind fromknots sea level pressurealtimeterstation pressurevisibilityair tempwater tempwave heightnotes
2014-Oct-25 02:00 360 7 15.0
2014-Oct-25 01:00 360 8 16.0
2014-Oct-25 00:00 350 9 17.0
2014-Oct-24 23:00 350 7 17.0
2014-Oct-24 22:00 010 7 18.0
2014-Oct-24 21:00 350 10 19.0
2014-Oct-24 20:00 070 5 21.0
2014-Oct-24 19:00 060 4 21.0
2014-Oct-24 18:00 070 6 22.0
2014-Oct-24 17:00 080 6 23.0
2014-Oct-24 16:00 070 6 24.0
2014-Oct-24 15:00 080 7 27.0
2014-Oct-24 14:00 050 6 29.0
2014-Oct-24 13:00 020 6 31.0
2014-Oct-24 12:00 350 9 32.0
2014-Oct-24 11:00 030 7 31.0
2014-Oct-24 10:00 360 11 30.0
2014-Oct-24 09:00 010 11 29.0
2014-Oct-24 08:00 010 6 26.0
2014-Oct-24 07:00 340 5 24.0
2014-Oct-24 06:00 360 6 22.0
2014-Oct-24 05:00 350 4 18.0
2014-Oct-24 04:00 330 7 16.0
2014-Oct-24 03:00 340 8 15.0
2014-Oct-24 02:00 350 7 16.0
2014-Oct-24 01:00 350 6 17.0
2014-Oct-23 23:00 290 2 18.0
2014-Oct-23 22:00 250 4 19.0
2014-Oct-23 21:00 180 6 21.0
2014-Oct-23 20:00 160 7 21.0
2014-Oct-23 19:00 160 6 5.424.0
2014-Oct-23 18:00 160 6 5.424.0
2014-Oct-23 17:00 120 9 5.423.0
2014-Oct-23 16:00 130 9 5.424.0
2014-Oct-23 15:00 120 9 5.426.0
2014-Oct-23 14:00 130 11 30.0
2014-Oct-23 13:00 130 9 30.0
2014-Oct-23 12:00 140 9 31.0
2014-Oct-23 11:00 140 12 30.0
2014-Oct-23 10:00 100 16 29.0
2014-Oct-23 09:00 140 16 27.0
2014-Oct-23 08:00 140 18 26.0
2014-Oct-23 07:00 140 15 23.0
2014-Oct-23 06:00 140 13 20.0
2014-Oct-23 05:00 120 6 17.0
2014-Oct-23 04:00 130 5 13.0
2014-Oct-23 03:00 110 5 12.0